JAL8087 VTSP-RJAA

Flight info

Callsign JAL8087
Flight time N/A
Altitude 35000
Route ONETI1A ONETI R575 NILIS/N0494F370 R575 PAPRA/K0913F370 A1 IKELA/N0492F370 DCT MORTU DCT NOBAD DCT KAPLI G86 HCN J7 PICHU Q13 IGURU Y57 GEMNI/N0491F390 Y57 YULIA Y89 GUPER Y81 RUTAS
Aircraft B744/H-SDE3FGHIM1M2RWXY/LB1

Departure

Time 2026-05-04 19:58
Airport Phuket International Airport (VTSP)

Arrival

Time N/A
Airport Narita International Airport (RJAA)
Time Latitude Longitude Altitude Speed Heading
2026-05-04 19:58 8.13472 98.54458 7799 ft 272 kts 85°
2026-05-04 19:58 8.13646 98.56351 8398 ft 273 kts 85°
2026-05-04 19:58 8.13820 98.58253 8915 ft 276 kts 85°
2026-05-04 19:58 8.14059 98.60194 9448 ft 279 kts 76°
2026-05-04 19:59 8.14845 98.61990 9926 ft 284 kts 56°
2026-05-04 19:59 8.16149 98.63470 10445 ft 287 kts 46°
2026-05-04 19:59 8.17610 98.64880 10947 ft 289 kts 47°
2026-05-04 19:59 8.19039 98.66322 11394 ft 293 kts 47°
2026-05-04 20:00 8.20501 98.67824 11802 ft 298 kts 47°
2026-05-04 20:00 8.21967 98.69332 12151 ft 304 kts 47°
2026-05-04 20:00 8.23469 98.70879 12386 ft 314 kts 47°
2026-05-04 20:00 8.25036 98.72497 12604 ft 325 kts 47°
2026-05-04 20:01 8.26632 98.74146 13022 ft 329 kts 47°
2026-05-04 20:01 8.28229 98.75801 13450 ft 332 kts 47°
2026-05-04 20:01 8.29773 98.77548 13845 ft 334 kts 57°
2026-05-04 20:01 8.30850 98.79633 14275 ft 334 kts 69°
2026-05-04 20:02 8.31671 98.81841 14670 ft 337 kts 70°
2026-05-04 20:02 8.32517 98.84045 15099 ft 338 kts 69°
2026-05-04 20:02 8.33390 98.86265 15474 ft 341 kts 69°
2026-05-04 20:02 8.34275 98.88521 15865 ft 343 kts 69°
2026-05-04 20:03 8.35153 98.90760 16238 ft 345 kts 69°
2026-05-04 20:03 8.36041 98.93024 16599 ft 348 kts 69°
2026-05-04 20:03 8.36935 98.95300 16938 ft 350 kts 69°
2026-05-04 20:03 8.37841 98.97605 17277 ft 352 kts 69°
2026-05-04 20:04 8.38754 98.99928 17609 ft 355 kts 69°
2026-05-04 20:04 8.39667 99.02246 17952 ft 356 kts 69°
2026-05-04 20:04 8.40586 99.04579 18306 ft 357 kts 69°
2026-05-04 20:04 8.41507 99.06919 18648 ft 358 kts 69°
2026-05-04 20:05 8.42419 99.09238 18964 ft 359 kts 69°
2026-05-04 20:05 8.43352 99.11609 19279 ft 361 kts 69°
2026-05-04 20:05 8.44280 99.13970 19591 ft 362 kts 69°
2026-05-04 20:05 8.45205 99.16319 19874 ft 364 kts 69°
2026-05-04 20:06 8.46158 99.18742 20196 ft 376 kts 69°
2026-05-04 20:06 8.47137 99.21230 20902 ft 379 kts 69°
2026-05-04 20:06 8.48103 99.23688 21550 ft 383 kts 69°
2026-05-04 20:06 8.49104 99.26235 22222 ft 386 kts 69°
2026-05-04 20:07 8.50099 99.28772 22847 ft 391 kts 69°
2026-05-04 20:07 8.51101 99.31334 23480 ft 394 kts 69°
2026-05-04 20:07 8.52103 99.33893 24069 ft 397 kts 69°
2026-05-04 20:07 8.53132 99.36513 24661 ft 401 kts 69°
2026-05-04 20:08 8.54157 99.39129 25256 ft 403 kts 68°
2026-05-04 20:08 8.55196 99.41782 25782 ft 407 kts 68°
2026-05-04 20:08 8.56255 99.44441 26281 ft 412 kts 65°
2026-05-04 20:08 8.57746 99.46944 26778 ft 415 kts 51°
2026-05-04 20:09 8.59800 99.49002 27245 ft 419 kts 37°
2026-05-04 20:09 8.62273 99.50558 27780 ft 420 kts 29°
2026-05-04 20:09 8.64866 99.51976 28216 ft 424 kts 30°
2026-05-04 20:09 8.67427 99.53470 28722 ft 426 kts 31°
2026-05-04 20:10 8.70007 99.55006 29170 ft 430 kts 31°
2026-05-04 20:10 8.72601 99.56549 29677 ft 431 kts 31°
2026-05-04 20:10 8.75222 99.58118 30158 ft 433 kts 31°
2026-05-04 20:10 8.77810 99.59672 30632 ft 434 kts 31°
2026-05-04 20:11 8.80418 99.61242 31098 ft 435 kts 31°
2026-05-04 20:11 8.83045 99.62824 31510 ft 437 kts 31°
2026-05-04 20:11 8.85690 99.64418 31876 ft 440 kts 31°
2026-05-04 20:11 8.88313 99.65998 32212 ft 442 kts 31°
2026-05-04 20:12 8.91002 99.67620 32547 ft 445 kts 31°
2026-05-04 20:12 8.93688 99.69237 32888 ft 448 kts 31°
2026-05-04 20:12 8.96383 99.70862 33235 ft 451 kts 31°
2026-05-04 20:12 8.99088 99.72495 33582 ft 453 kts 31°
2026-05-04 20:13 9.01824 99.74143 33935 ft 455 kts 31°
2026-05-04 20:13 9.04566 99.75799 34281 ft 457 kts 31°
2026-05-04 20:13 9.07294 99.77450 34617 ft 459 kts 31°
2026-05-04 20:13 9.10050 99.79121 34843 ft 465 kts 31°
2026-05-04 20:14 9.12872 99.80845 34947 ft 473 kts 31°
2026-05-04 20:14 9.18582 99.84280 34937 ft 484 kts 31°
2026-05-04 20:15 9.24367 99.87777 34849 ft 479 kts 31°
2026-05-04 20:15 9.30097 99.91245 34834 ft 477 kts 31°
2026-05-04 20:16 9.35819 99.94710 34849 ft 478 kts 31°
2026-05-04 20:16 9.41557 99.98182 34863 ft 479 kts 31°
2026-05-04 20:17 9.47299 100.01659 34883 ft 479 kts 30°
2026-05-04 20:17 9.52860 100.05337 34847 ft 479 kts 41°
2026-05-04 20:17 9.55123 100.07829 34858 ft 480 kts 53°
2026-05-04 20:18 9.56794 100.10735 34867 ft 482 kts 66°
2026-05-04 20:18 9.58926 100.17239 34883 ft 484 kts 70°
2026-05-04 20:19 9.61179 100.23678 34853 ft 485 kts 70°
2026-05-04 20:19 9.63403 100.30133 34828 ft 484 kts 69°
2026-05-04 20:20 9.65742 100.36539 34819 ft 482 kts 69°
2026-05-04 20:20 9.68055 100.42918 34823 ft 482 kts 69°
2026-05-04 20:21 9.70493 100.49268 34790 ft 482 kts 61°
2026-05-04 20:21 9.72358 100.52125 34800 ft 480 kts 50°
2026-05-04 20:21 9.76744 100.57253 34838 ft 481 kts 49°
2026-05-04 20:22 9.81007 100.62490 34828 ft 482 kts 50°
2026-05-04 20:22 9.85302 100.67775 34821 ft 483 kts 50°
2026-05-04 20:23 9.89590 100.73070 34821 ft 483 kts 50°
2026-05-04 20:23 9.93857 100.78348 34821 ft 484 kts 50°
2026-05-04 20:24 9.98117 100.83621 34822 ft 483 kts 50°
2026-05-04 20:24 10.02394 100.88909 34817 ft 481 kts 50°
2026-05-04 20:25 10.06649 100.94180 34821 ft 481 kts 50°
2026-05-04 20:25 10.10880 100.99425 34822 ft 481 kts 50°
2026-05-04 20:26 10.15136 101.04698 34825 ft 481 kts 50°
2026-05-04 20:26 10.19399 101.10000 34824 ft 482 kts 50°
2026-05-04 20:27 10.23546 101.15313 34825 ft 482 kts 52°
2026-05-04 20:27 10.27659 101.20765 34833 ft 482 kts 51°
2026-05-04 20:28 10.31752 101.26171 34836 ft 482 kts 51°
2026-05-04 20:28 10.35819 101.31584 34835 ft 482 kts 52°
2026-05-04 20:29 10.39903 101.36988 34833 ft 482 kts 51°
2026-05-04 20:29 10.44014 101.42431 34833 ft 482 kts 51°
2026-05-04 20:30 10.48112 101.47865 34833 ft 482 kts 51°
2026-05-04 20:30 10.52192 101.53280 34830 ft 483 kts 51°
2026-05-04 20:31 10.56306 101.58742 34826 ft 483 kts 51°
2026-05-04 20:31 10.60402 101.64182 34826 ft 483 kts 51°
2026-05-04 20:32 10.64486 101.69614 34821 ft 483 kts 52°
2026-05-04 20:32 10.68581 101.75049 34821 ft 483 kts 52°
2026-05-04 20:33 10.72663 101.80486 34824 ft 483 kts 52°
2026-05-04 20:33 10.76747 101.85956 34823 ft 483 kts 52°
2026-05-04 20:34 10.80849 101.91396 34822 ft 483 kts 51°
2026-05-04 20:34 10.84956 101.96867 34822 ft 483 kts 51°
2026-05-04 20:35 10.89032 102.02290 34824 ft 484 kts 51°
2026-05-04 20:35 10.93146 102.07770 34826 ft 484 kts 52°
2026-05-04 20:36 10.97239 102.13226 34823 ft 483 kts 52°
2026-05-04 20:36 11.01339 102.18690 34826 ft 483 kts 52°
2026-05-04 20:37 11.05395 102.24141 34827 ft 482 kts 52°
2026-05-04 20:37 11.09419 102.29555 34829 ft 481 kts 52°
2026-05-04 20:38 11.13487 102.35023 34824 ft 482 kts 52°
2026-05-04 20:38 11.17568 102.40526 34827 ft 482 kts 52°
2026-05-04 20:39 11.21604 102.45964 34828 ft 482 kts 52°
2026-05-04 20:39 11.25656 102.51442 34834 ft 483 kts 52°
2026-05-04 20:40 11.29722 102.56932 34828 ft 483 kts 52°
2026-05-04 20:40 11.33770 102.62402 34852 ft 483 kts 52°
2026-05-04 20:41 11.37842 102.67905 34841 ft 484 kts 52°
2026-05-04 20:41 11.41924 102.73434 34836 ft 484 kts 52°
2026-05-04 20:42 11.45962 102.78897 34843 ft 483 kts 52°
2026-05-04 20:42 11.50028 102.84383 34857 ft 485 kts 53°
2026-05-04 20:43 11.54123 102.89912 34867 ft 489 kts 53°
2026-05-04 20:43 11.58235 102.95509 34874 ft 491 kts 53°
2026-05-04 20:44 11.62326 103.01046 34858 ft 489 kts 50°
2026-05-04 20:44 11.66924 103.06211 34890 ft 488 kts 47°
2026-05-04 20:45 11.71438 103.11382 34911 ft 490 kts 48°
2026-05-04 20:45 11.75982 103.16587 34915 ft 490 kts 48°
2026-05-04 20:46 11.80543 103.21822 34921 ft 489 kts 48°
2026-05-04 20:46 11.85064 103.27017 34931 ft 488 kts 48°
2026-05-04 20:47 11.89600 103.32231 34944 ft 489 kts 48°
2026-05-04 20:47 11.94141 103.37463 34963 ft 491 kts 48°
2026-05-04 20:48 11.98672 103.42678 34970 ft 489 kts 48°
2026-05-04 20:48 12.03186 103.47882 34982 ft 488 kts 48°
2026-05-04 20:49 12.07703 103.53084 34981 ft 488 kts 48°
2026-05-04 20:49 12.12225 103.58297 34947 ft 488 kts 48°
2026-05-04 20:50 12.16747 103.63510 34920 ft 486 kts 48°
2026-05-04 20:50 12.21211 103.68686 34895 ft 486 kts 48°
2026-05-04 20:51 12.25764 103.73838 34874 ft 488 kts 46°
2026-05-04 20:51 12.30493 103.78932 34871 ft 490 kts 46°
2026-05-04 20:52 12.35146 103.84010 34868 ft 489 kts 46°
2026-05-04 20:52 12.39825 103.89108 34860 ft 488 kts 46°
2026-05-04 20:53 12.44491 103.94218 34861 ft 488 kts 47°
2026-05-04 20:53 12.49111 103.99277 34857 ft 487 kts 46°
2026-05-04 20:54 12.53775 104.04387 34868 ft 491 kts 46°
2026-05-04 20:54 12.58500 104.09541 34861 ft 491 kts 46°
2026-05-04 20:55 12.63176 104.14647 34853 ft 491 kts 46°
2026-05-04 20:55 12.67834 104.19742 34850 ft 490 kts 46°
2026-05-04 20:56 12.72500 104.24863 34853 ft 490 kts 46°
2026-05-04 20:56 12.77192 104.29999 34853 ft 490 kts 46°
2026-05-04 20:57 12.81827 104.35091 34859 ft 490 kts 46°
2026-05-04 20:57 12.86476 104.40235 34857 ft 490 kts 46°
2026-05-04 20:58 12.91187 104.45366 34858 ft 491 kts 46°
2026-05-04 20:58 12.95847 104.50487 34866 ft 493 kts 46°
2026-05-04 20:59 13.00541 104.55650 34859 ft 492 kts 46°
2026-05-04 20:59 13.05213 104.60787 34853 ft 490 kts 46°
2026-05-04 21:00 13.09877 104.65930 34855 ft 491 kts 46°
2026-05-04 21:00 13.14561 104.71086 34865 ft 493 kts 46°
2026-05-04 21:01 13.19235 104.76237 34859 ft 492 kts 46°
2026-05-04 21:01 13.23907 104.81395 34864 ft 492 kts 46°
2026-05-04 21:02 13.28604 104.86568 34870 ft 493 kts 46°
2026-05-04 21:02 13.33272 104.91718 34870 ft 493 kts 46°
2026-05-04 21:03 13.37984 104.96929 34870 ft 494 kts 46°
2026-05-04 21:03 13.42665 105.02104 34878 ft 495 kts 46°
2026-05-04 21:04 13.47366 105.07297 34874 ft 494 kts 46°
2026-05-04 21:04 13.52030 105.12471 34870 ft 494 kts 46°
2026-05-04 21:05 13.56737 105.17676 34873 ft 494 kts 46°
2026-05-04 21:05 13.61443 105.22895 34873 ft 495 kts 46°
2026-05-04 21:06 13.66142 105.28105 34873 ft 495 kts 46°
2026-05-04 21:06 13.70836 105.33311 34876 ft 495 kts 46°
2026-05-04 21:07 13.75530 105.38515 34876 ft 496 kts 46°
2026-05-04 21:07 13.80259 105.43747 34857 ft 494 kts 42°
2026-05-04 21:08 13.85543 105.48284 34885 ft 492 kts 38°
2026-05-04 21:08 13.90842 105.52879 34888 ft 494 kts 38°
2026-05-04 21:09 13.96117 105.57455 34881 ft 494 kts 39°
2026-05-04 21:09 14.01390 105.62040 34879 ft 494 kts 39°
2026-05-04 21:10 14.06630 105.66615 34876 ft 495 kts 39°
2026-05-04 21:10 14.11887 105.71256 34874 ft 495 kts 39°
2026-05-04 21:11 14.17158 105.75882 34875 ft 496 kts 39°
2026-05-04 21:11 14.22415 105.80521 34875 ft 496 kts 39°
2026-05-04 21:12 14.27706 105.85191 34880 ft 495 kts 39°
2026-05-04 21:12 14.32929 105.89804 34890 ft 495 kts 39°
2026-05-04 21:13 14.38199 105.94461 34900 ft 496 kts 39°
2026-05-04 21:13 14.43465 105.99123 34903 ft 497 kts 39°
2026-05-04 21:14 14.48757 106.03807 34912 ft 497 kts 39°
2026-05-04 21:14 14.54040 106.08496 34917 ft 498 kts 39°
2026-05-04 21:15 14.59314 106.13168 34912 ft 497 kts 39°
2026-05-04 21:15 14.64590 106.17846 34908 ft 497 kts 39°
2026-05-04 21:16 14.69857 106.22523 34898 ft 497 kts 39°
2026-05-04 21:16 14.75117 106.27194 34905 ft 498 kts 39°
2026-05-04 21:17 14.80414 106.31889 34909 ft 498 kts 39°
2026-05-04 21:17 14.85674 106.36596 34921 ft 499 kts 39°
2026-05-04 21:18 14.90980 106.41341 34940 ft 500 kts 38°
2026-05-04 21:18 14.96273 106.46053 34958 ft 500 kts 38°
2026-05-04 21:19 15.01559 106.50778 34965 ft 499 kts 38°
2026-05-04 21:19 15.06850 106.55503 34972 ft 498 kts 38°
2026-05-04 21:20 15.12093 106.60199 34989 ft 497 kts 38°
2026-05-04 21:20 15.17370 106.64919 35000 ft 498 kts 38°
2026-05-04 21:21 15.22637 106.69644 34971 ft 497 kts 39°
2026-05-04 21:21 15.27894 106.74365 34958 ft 496 kts 39°
2026-05-04 21:22 15.33104 106.79047 34945 ft 496 kts 39°
2026-05-04 21:22 15.38362 106.83768 34961 ft 496 kts 39°
2026-05-04 21:23 15.43588 106.88467 34987 ft 495 kts 38°
2026-05-04 21:23 15.48836 106.93190 35015 ft 496 kts 39°
2026-05-04 21:24 15.54102 106.97929 35031 ft 497 kts 39°
2026-05-04 21:24 15.59324 107.02633 35067 ft 496 kts 39°
2026-05-04 21:25 15.64546 107.07345 35077 ft 495 kts 39°
2026-05-04 21:25 15.69778 107.12053 35083 ft 495 kts 38°
2026-05-04 21:26 15.74912 107.16846 35050 ft 497 kts 46°
2026-05-04 21:26 15.76995 107.19736 35048 ft 500 kts 58°
2026-05-04 21:26 15.78464 107.23032 35064 ft 503 kts 71°
2026-05-04 21:27 15.80194 107.30062 35108 ft 506 kts 73°
2026-05-04 21:27 15.82146 107.37097 35089 ft 506 kts 72°
2026-05-04 21:28 15.84126 107.44099 35056 ft 504 kts 72°
2026-05-04 21:28 15.86121 107.51083 35043 ft 503 kts 72°
2026-05-04 21:29 15.88113 107.58015 35040 ft 505 kts 72°
2026-05-04 21:29 15.90106 107.65045 35031 ft 506 kts 73°
2026-05-04 21:30 15.92028 107.72027 35016 ft 506 kts 73°
2026-05-04 21:30 15.93962 107.79096 35012 ft 506 kts 73°
2026-05-04 21:31 15.96819 107.89638 35027 ft 506 kts 73°
2026-05-04 21:32 15.98805 107.96633 35031 ft 506 kts 72°
2026-05-04 21:32 16.00790 108.03695 35044 ft 506 kts 72°
2026-05-04 21:33 16.02762 108.10708 35022 ft 506 kts 72°
2026-05-04 21:33 16.04701 108.17663 34987 ft 506 kts 72°
2026-05-04 21:33 16.05987 108.21076 34934 ft 503 kts 60°
2026-05-04 21:34 16.07833 108.24109 34950 ft 500 kts 52°
2026-05-04 21:34 16.11884 108.30021 34963 ft 502 kts 54°
2026-05-04 21:35 16.15828 108.36079 34946 ft 502 kts 54°
2026-05-04 21:35 16.19725 108.42093 34934 ft 501 kts 54°
2026-05-04 21:36 16.23648 108.48153 34935 ft 500 kts 54°
2026-05-04 21:36 16.27546 108.54188 34935 ft 501 kts 54°
2026-05-04 21:37 16.31451 108.60230 34935 ft 502 kts 54°
2026-05-04 21:37 16.35343 108.66326 34929 ft 502 kts 55°
2026-05-04 21:38 16.39334 108.72296 34924 ft 500 kts 53°
2026-05-04 21:38 16.43316 108.78254 34928 ft 499 kts 53°
2026-05-04 21:39 16.47312 108.84231 34924 ft 499 kts 53°
2026-05-04 21:39 16.51279 108.90166 34922 ft 500 kts 53°
2026-05-04 21:40 16.55259 108.96188 34914 ft 500 kts 54°
2026-05-04 21:40 16.59172 109.02179 34909 ft 501 kts 54°
2026-05-04 21:41 16.63108 109.08225 34906 ft 501 kts 54°
2026-05-04 21:41 16.67030 109.14263 34909 ft 501 kts 54°
2026-05-04 21:42 16.70942 109.20293 34907 ft 501 kts 54°
2026-05-04 21:42 16.74892 109.26382 34907 ft 501 kts 54°
2026-05-04 21:43 16.78806 109.32416 34902 ft 501 kts 54°
2026-05-04 21:43 16.82691 109.38463 34902 ft 501 kts 54°
2026-05-04 21:44 16.86610 109.44511 34905 ft 500 kts 54°
2026-05-04 21:44 16.90513 109.50532 34902 ft 500 kts 54°
2026-05-04 21:45 16.94408 109.56549 34906 ft 501 kts 54°
2026-05-04 21:45 16.98328 109.62615 34907 ft 501 kts 54°
2026-05-04 21:46 17.02236 109.68671 34894 ft 500 kts 54°
2026-05-04 21:46 17.06130 109.74711 34904 ft 500 kts 54°
2026-05-04 21:47 17.10018 109.80747 34908 ft 501 kts 54°
2026-05-04 21:47 17.13934 109.86828 34913 ft 502 kts 54°
2026-05-04 21:48 17.17841 109.92902 34911 ft 501 kts 54°
2026-05-04 21:48 17.21728 109.98953 34911 ft 501 kts 54°
2026-05-04 21:49 17.25643 110.05048 34915 ft 501 kts 54°
2026-05-04 21:49 17.29533 110.11117 34913 ft 501 kts 54°
2026-05-04 21:50 17.33437 110.17205 34913 ft 500 kts 54°
2026-05-04 21:50 17.37332 110.23275 34917 ft 501 kts 54°
2026-05-04 21:51 17.41204 110.29368 34916 ft 502 kts 55°
2026-05-04 21:51 17.45123 110.35406 34917 ft 502 kts 54°
2026-05-04 21:52 17.49080 110.41497 34917 ft 503 kts 54°
2026-05-04 21:52 17.53004 110.47535 34917 ft 503 kts 54°
2026-05-04 21:53 17.56948 110.53616 34922 ft 503 kts 54°
2026-05-04 21:53 17.60906 110.59728 34922 ft 503 kts 54°
2026-05-04 21:54 17.64855 110.65836 34920 ft 503 kts 54°
2026-05-04 21:54 17.68775 110.71896 34918 ft 502 kts 54°
2026-05-04 21:55 17.72707 110.77988 34927 ft 501 kts 54°
2026-05-04 21:55 17.76646 110.84096 34928 ft 501 kts 54°
2026-05-04 21:56 17.80548 110.90153 34926 ft 501 kts 54°
2026-05-04 21:56 17.84454 110.96218 34924 ft 501 kts 54°
2026-05-04 21:57 17.88368 111.02307 34932 ft 504 kts 54°
2026-05-04 21:57 17.92326 111.08467 34927 ft 505 kts 54°
2026-05-04 21:58 17.96247 111.14559 34930 ft 504 kts 54°
2026-05-04 21:58 18.00174 111.20682 34924 ft 503 kts 54°
2026-05-04 21:59 18.04099 111.26816 34930 ft 505 kts 54°
2026-05-04 21:59 18.08042 111.32971 34931 ft 504 kts 54°
2026-05-04 22:00 18.11965 111.39099 34925 ft 504 kts 54°
2026-05-04 22:00 18.15888 111.45241 34926 ft 504 kts 54°
2026-05-04 22:01 18.19817 111.51389 34932 ft 506 kts 54°
2026-05-04 22:01 18.23748 111.57555 34935 ft 506 kts 54°
2026-05-04 22:02 18.27661 111.63695 34930 ft 506 kts 54°
2026-05-04 22:02 18.31617 111.69900 34929 ft 506 kts 54°
2026-05-04 22:03 18.35513 111.76035 34934 ft 507 kts 54°
2026-05-04 22:03 18.39438 111.82212 34923 ft 507 kts 54°
2026-05-04 22:04 18.43372 111.88406 34934 ft 507 kts 54°
2026-05-04 22:04 18.47332 111.94643 34935 ft 507 kts 54°
2026-05-04 22:05 18.51258 112.00841 34936 ft 507 kts 54°
2026-05-04 22:05 18.55182 112.07037 34933 ft 508 kts 54°
2026-05-04 22:06 18.59127 112.13268 34940 ft 509 kts 54°
2026-05-04 22:06 18.63053 112.19476 34939 ft 508 kts 54°
2026-05-04 22:07 18.66868 112.25754 34925 ft 509 kts 59°
2026-05-04 22:07 18.70140 112.32411 34939 ft 509 kts 60°
2026-05-04 22:08 18.73448 112.39037 34942 ft 510 kts 60°
2026-05-04 22:08 18.76751 112.45674 34938 ft 511 kts 60°
2026-05-04 22:09 18.80065 112.52340 34936 ft 511 kts 60°
2026-05-04 22:09 18.83356 112.58969 34931 ft 511 kts 60°
2026-05-04 22:10 18.86663 112.65639 34933 ft 511 kts 61°
2026-05-04 22:10 18.89968 112.72311 34923 ft 510 kts 61°
2026-05-04 22:11 18.93248 112.78941 34924 ft 510 kts 60°
2026-05-04 22:11 18.96543 112.85615 34933 ft 511 kts 60°
2026-05-04 22:12 18.99821 112.92255 34925 ft 512 kts 61°
2026-05-04 22:12 19.03111 112.98926 34928 ft 512 kts 61°
2026-05-04 22:13 19.06395 113.05588 34921 ft 511 kts 60°
2026-05-04 22:13 19.09663 113.12239 34925 ft 511 kts 60°
2026-05-04 22:14 19.12951 113.18928 34925 ft 512 kts 61°
2026-05-04 22:14 19.16235 113.25622 34923 ft 512 kts 61°
2026-05-04 22:15 19.19509 113.32306 34929 ft 512 kts 60°
2026-05-04 22:15 19.22800 113.39024 34928 ft 512 kts 60°
2026-05-04 22:16 19.26067 113.45696 34934 ft 512 kts 60°
2026-05-04 22:16 19.29348 113.52409 34931 ft 512 kts 60°
2026-05-04 22:17 19.32633 113.59143 34929 ft 512 kts 60°
2026-05-04 22:17 19.35887 113.65812 34929 ft 512 kts 61°
2026-05-04 22:18 19.39168 113.72548 34928 ft 513 kts 61°
2026-05-04 22:18 19.42434 113.79269 34932 ft 513 kts 60°
2026-05-04 22:19 19.45713 113.86012 34937 ft 514 kts 61°
2026-05-04 22:19 19.48965 113.92715 34937 ft 514 kts 61°
2026-05-04 22:20 19.52237 113.99467 34936 ft 514 kts 61°
2026-05-04 22:20 19.55495 114.06206 34937 ft 514 kts 60°
2026-05-04 22:21 19.58764 114.12962 34940 ft 514 kts 60°
2026-05-04 22:21 19.62032 114.19729 34938 ft 515 kts 61°
2026-05-04 22:22 19.65306 114.26514 34936 ft 515 kts 60°
2026-05-04 22:22 19.68585 114.33298 34941 ft 515 kts 60°
2026-05-04 22:23 19.71803 114.40094 34935 ft 514 kts 60°
2026-05-04 22:23 19.75085 114.46845 34940 ft 514 kts 60°
2026-05-04 22:24 19.78324 114.53584 34942 ft 514 kts 60°
2026-05-04 22:24 19.81569 114.60352 34945 ft 514 kts 60°
2026-05-04 22:25 19.84827 114.67165 34932 ft 514 kts 60°
2026-05-04 22:25 19.88056 114.73920 34940 ft 514 kts 61°
2026-05-04 22:26 19.91305 114.80721 34945 ft 514 kts 60°
2026-05-04 22:26 19.94527 114.87482 34942 ft 515 kts 60°
2026-05-04 22:27 19.97754 114.94260 34943 ft 516 kts 60°
2026-05-04 22:27 20.00994 115.01066 34942 ft 516 kts 60°
2026-05-04 22:28 20.04226 115.07861 34946 ft 515 kts 61°
2026-05-04 22:28 20.07437 115.14625 34947 ft 515 kts 61°
2026-05-04 22:29 20.10667 115.21452 34952 ft 516 kts 61°
2026-05-04 22:29 20.13887 115.28257 34950 ft 516 kts 60°
2026-05-04 22:30 20.17100 115.35045 34951 ft 516 kts 60°
2026-05-04 22:30 20.20314 115.41829 34950 ft 515 kts 60°
2026-05-04 22:31 20.23508 115.48627 34946 ft 515 kts 61°
2026-05-04 22:31 20.26702 115.55482 34952 ft 515 kts 60°
2026-05-04 22:32 20.29927 115.62267 34952 ft 515 kts 61°
2026-05-04 22:32 20.33140 115.69080 34942 ft 517 kts 61°
2026-05-04 22:33 20.36322 115.75865 34948 ft 515 kts 61°
2026-05-04 22:33 20.39524 115.82694 34949 ft 514 kts 61°
2026-05-04 22:34 20.42705 115.89493 34956 ft 515 kts 61°
2026-05-04 22:34 20.45912 115.96343 34955 ft 516 kts 61°
2026-05-04 22:35 20.49100 116.03167 34952 ft 516 kts 61°
2026-05-04 22:35 20.52296 116.10012 34953 ft 516 kts 61°
2026-05-04 22:36 20.55485 116.16869 34952 ft 516 kts 61°
2026-05-04 22:36 20.58683 116.23743 34952 ft 517 kts 61°
2026-05-04 22:37 20.61891 116.30642 34943 ft 517 kts 61°
2026-05-04 22:37 20.65082 116.37515 34954 ft 517 kts 61°
2026-05-04 22:38 20.68268 116.44376 34954 ft 518 kts 61°
2026-05-04 22:38 20.71468 116.51291 34960 ft 519 kts 61°
2026-05-04 22:39 20.74648 116.58168 34957 ft 518 kts 61°
2026-05-04 22:39 20.77817 116.65037 34954 ft 517 kts 61°
2026-05-04 22:40 20.80983 116.71898 34944 ft 516 kts 61°
2026-05-04 22:40 20.84143 116.78751 34970 ft 518 kts 62°
2026-05-04 22:41 20.87327 116.85677 34965 ft 519 kts 62°
2026-05-04 22:41 20.90479 116.92536 34958 ft 518 kts 61°
2026-05-04 22:42 20.93663 116.99474 34963 ft 518 kts 61°
2026-05-04 22:42 20.96818 117.06364 34967 ft 520 kts 61°
2026-05-04 22:43 20.99964 117.13232 34968 ft 518 kts 62°
2026-05-04 22:43 21.03128 117.20146 34965 ft 518 kts 62°
2026-05-04 22:44 21.06260 117.27018 34964 ft 517 kts 62°
2026-05-04 22:44 21.09414 117.33933 34966 ft 518 kts 61°
2026-05-04 22:45 21.12564 117.40829 34961 ft 518 kts 61°
2026-05-04 22:45 21.17087 117.51360 34922 ft 522 kts 71°
2026-05-04 22:46 21.18815 117.58888 34978 ft 525 kts 75°
2026-05-04 22:46 21.20625 117.66473 34973 ft 526 kts 75°
2026-05-04 22:47 21.22421 117.74023 34954 ft 526 kts 75°
2026-05-04 22:47 21.24217 117.81630 34963 ft 525 kts 75°
2026-05-04 22:48 21.26006 117.89195 34964 ft 525 kts 75°
2026-05-04 22:48 21.27800 117.96773 34955 ft 525 kts 75°
2026-05-04 22:49 21.29573 118.04327 34958 ft 525 kts 75°
2026-05-04 22:49 21.31355 118.11893 34962 ft 527 kts 75°
2026-05-04 22:50 21.33134 118.19501 34960 ft 526 kts 75°
2026-05-04 22:50 21.34910 118.27074 34959 ft 525 kts 75°
2026-05-04 22:51 21.36675 118.34611 34962 ft 525 kts 75°
2026-05-04 22:51 21.38416 118.42225 34962 ft 526 kts 75°
2026-05-04 22:52 21.40188 118.49755 34965 ft 526 kts 75°
2026-05-04 22:52 21.41952 118.57344 34966 ft 526 kts 75°
2026-05-04 22:53 21.43693 118.64896 34969 ft 525 kts 75°
2026-05-04 22:53 21.45447 118.72456 34959 ft 525 kts 75°
2026-05-04 22:54 21.47197 118.80048 34968 ft 526 kts 75°
2026-05-04 22:54 21.48938 118.87643 34987 ft 528 kts 75°
2026-05-04 22:55 21.50690 118.95290 34979 ft 527 kts 75°
2026-05-04 22:55 21.52428 119.02894 34975 ft 526 kts 75°
2026-05-04 22:56 21.54169 119.10500 34983 ft 526 kts 75°
2026-05-04 22:56 21.55900 119.18100 34982 ft 526 kts 75°
2026-05-04 22:57 21.57626 119.25702 34982 ft 526 kts 75°
2026-05-04 22:57 21.59362 119.33329 34986 ft 526 kts 75°
2026-05-04 22:58 21.61087 119.40956 34982 ft 527 kts 75°
2026-05-04 22:58 21.62804 119.48589 34986 ft 527 kts 75°
2026-05-04 22:59 21.64544 119.56284 34985 ft 527 kts 75°
2026-05-04 22:59 21.66237 119.63850 34986 ft 527 kts 75°
2026-05-04 23:00 21.67956 119.71494 34970 ft 527 kts 76°
2026-05-04 23:00 21.69668 119.79160 34980 ft 527 kts 75°
2026-05-04 23:01 21.71376 119.86791 34986 ft 528 kts 75°
2026-05-04 23:01 21.73075 119.94438 34984 ft 529 kts 75°
2026-05-04 23:02 21.74765 120.02122 34977 ft 527 kts 75°
2026-05-04 23:02 21.76480 120.09779 34967 ft 526 kts 76°
2026-05-04 23:03 21.78166 120.17403 34969 ft 527 kts 75°
2026-05-04 23:03 21.79855 120.25040 34972 ft 528 kts 76°
2026-05-04 23:04 21.81542 120.32730 34980 ft 529 kts 75°
2026-05-04 23:04 21.83232 120.40403 34980 ft 529 kts 76°
2026-05-04 23:05 21.84913 120.48090 34978 ft 529 kts 76°
2026-05-04 23:05 21.86602 120.55803 34989 ft 529 kts 76°
2026-05-04 23:06 21.88264 120.63442 34992 ft 529 kts 76°
2026-05-04 23:06 21.89948 120.71165 34981 ft 529 kts 76°
2026-05-04 23:07 21.91611 120.78845 34991 ft 529 kts 76°
2026-05-04 23:07 21.93198 120.86481 34991 ft 528 kts 78°
2026-05-04 23:08 21.94581 120.94267 35004 ft 527 kts 78°
2026-05-04 23:08 21.95977 121.01996 35004 ft 527 kts 78°
2026-05-04 23:09 21.97362 121.09686 35006 ft 527 kts 78°
2026-05-04 23:09 21.98925 121.17379 34970 ft 526 kts 69°
2026-05-04 23:10 22.00452 121.20985 34976 ft 523 kts 56°
2026-05-04 23:10 22.02583 121.24161 34996 ft 519 kts 45°
2026-05-04 23:10 22.07364 121.29981 35032 ft 522 kts 47°
2026-05-04 23:11 22.11951 121.36032 35024 ft 521 kts 47°
2026-05-04 23:11 22.16502 121.42142 35011 ft 521 kts 47°
2026-05-04 23:12 22.21095 121.48241 35014 ft 520 kts 47°
2026-05-04 23:12 22.25608 121.54311 35012 ft 520 kts 47°
2026-05-04 23:13 22.30183 121.60434 35017 ft 521 kts 47°
2026-05-04 23:13 22.34688 121.66555 35012 ft 522 kts 49°
2026-05-04 23:14 22.39204 121.72755 35006 ft 521 kts 47°
2026-05-04 23:14 22.43741 121.78802 35014 ft 521 kts 48°
2026-05-04 23:15 22.48276 121.84920 35018 ft 522 kts 48°
2026-05-04 23:15 22.52813 121.91052 35015 ft 523 kts 48°
2026-05-04 23:16 22.57379 121.97247 35017 ft 524 kts 48°
2026-05-04 23:16 22.61912 122.03397 35011 ft 524 kts 48°
2026-05-04 23:17 22.66464 122.09583 35010 ft 523 kts 48°
2026-05-04 23:17 22.70951 122.15691 35005 ft 523 kts 47°
2026-05-04 23:18 22.75475 122.21851 35009 ft 524 kts 48°
2026-05-04 23:18 22.80011 122.28040 35007 ft 524 kts 48°
2026-05-04 23:19 22.84551 122.34227 35011 ft 525 kts 48°
2026-05-04 23:19 22.89069 122.40413 35010 ft 525 kts 48°
2026-05-04 23:20 22.93585 122.46586 35009 ft 526 kts 48°
2026-05-04 23:20 22.98132 122.52827 35009 ft 526 kts 48°
2026-05-04 23:21 23.02625 122.58981 35011 ft 526 kts 48°
2026-05-04 23:21 23.07164 122.65228 35009 ft 526 kts 48°
2026-05-04 23:22 23.11659 122.71403 34993 ft 525 kts 48°
2026-05-04 23:22 23.16177 122.77635 35011 ft 526 kts 48°
2026-05-04 23:23 23.20717 122.83884 35018 ft 528 kts 48°
2026-05-04 23:23 23.25262 122.90134 35022 ft 529 kts 48°
2026-05-04 23:24 23.29788 122.96401 35020 ft 530 kts 49°
2026-05-04 23:24 23.34124 123.02780 35017 ft 532 kts 52°
2026-05-04 23:25 23.38284 123.09365 35021 ft 531 kts 52°
2026-05-04 23:25 23.42434 123.15930 35019 ft 530 kts 52°
2026-05-04 23:26 23.46602 123.22516 35020 ft 531 kts 52°
2026-05-04 23:26 23.50754 123.29105 35023 ft 532 kts 52°
2026-05-04 23:27 23.54925 123.35722 35029 ft 531 kts 52°
2026-05-04 23:27 23.59039 123.42281 35033 ft 532 kts 52°
2026-05-04 23:28 23.63190 123.48878 35040 ft 533 kts 52°
2026-05-04 23:28 23.67333 123.55490 35032 ft 533 kts 52°
2026-05-04 23:29 23.71446 123.62058 35034 ft 533 kts 52°
2026-05-04 23:29 23.75601 123.68694 35017 ft 532 kts 52°
2026-05-04 23:30 23.79704 123.75274 35026 ft 532 kts 52°
2026-05-04 23:30 23.83583 123.81487 35041 ft 534 kts 53°
2026-05-04 23:31 23.87532 123.87817 35048 ft 534 kts 52°
2026-05-04 23:31 23.91709 123.94510 35117 ft 542 kts 53°
2026-05-04 23:32 23.93771 123.97889 35386 ft 544 kts 53°
2026-05-04 23:32 23.95765 124.01203 35621 ft 545 kts 52°
2026-05-04 23:32 23.97880 124.04448 35856 ft 544 kts 50°
2026-05-04 23:32 23.99658 124.07097 35992 ft 547 kts 51°
2026-05-04 23:33 24.03901 124.13631 36098 ft 554 kts 51°
2026-05-04 23:33 24.08363 124.20522 36228 ft 559 kts 51°
2026-05-04 23:34 24.12829 124.27440 36426 ft 560 kts 51°
2026-05-04 23:34 24.17300 124.34370 36593 ft 561 kts 51°
2026-05-04 23:35 24.21781 124.41353 36747 ft 562 kts 51°
2026-05-04 23:35 24.26276 124.48340 36865 ft 563 kts 51°
2026-05-04 23:36 24.30778 124.55370 36980 ft 564 kts 51°
2026-05-04 23:36 24.35249 124.62342 37067 ft 565 kts 51°
2026-05-04 23:37 24.39757 124.69389 37117 ft 565 kts 51°
2026-05-04 23:37 24.44254 124.76434 37164 ft 565 kts 52°
2026-05-04 23:38 24.48730 124.83448 37219 ft 565 kts 52°
2026-05-04 23:38 24.53190 124.90462 37261 ft 565 kts 52°
2026-05-04 23:39 24.57470 124.97195 37286 ft 565 kts 51°
2026-05-04 23:39 24.61932 125.04218 37338 ft 565 kts 51°
2026-05-04 23:40 24.66302 125.11106 37359 ft 566 kts 51°
2026-05-04 23:40 24.70701 125.18034 37389 ft 567 kts 51°
2026-05-04 23:41 24.75063 125.24920 37433 ft 567 kts 52°
2026-05-04 23:41 24.79311 125.31991 37487 ft 569 kts 55°
2026-05-04 23:42 24.83444 125.39268 37514 ft 569 kts 54°
2026-05-04 23:42 24.87636 125.46634 37574 ft 569 kts 55°
2026-05-04 23:43 24.91745 125.53907 37654 ft 569 kts 54°
2026-05-04 23:43 24.95890 125.61234 37687 ft 569 kts 54°
2026-05-04 23:44 25.00020 125.68542 37694 ft 570 kts 55°
2026-05-04 23:44 25.04159 125.75911 37702 ft 570 kts 55°
2026-05-04 23:45 25.08280 125.83227 37704 ft 571 kts 55°
2026-05-04 23:45 25.12414 125.90602 37727 ft 571 kts 55°
2026-05-04 23:46 25.16530 125.97962 37735 ft 571 kts 55°
2026-05-04 23:46 25.20664 126.05349 37792 ft 570 kts 55°
2026-05-04 23:47 25.24786 126.12711 37814 ft 570 kts 55°
2026-05-04 23:47 25.28914 126.20100 37821 ft 571 kts 55°
2026-05-04 23:48 25.33065 126.27544 37824 ft 572 kts 55°
2026-05-04 23:48 25.37176 126.34953 37863 ft 572 kts 56°
2026-05-04 23:49 25.41295 126.42356 37861 ft 573 kts 55°
2026-05-04 23:49 25.45429 126.49797 37889 ft 575 kts 56°
2026-05-04 23:50 25.49374 126.57133 37950 ft 574 kts 55°
2026-05-04 23:50 25.53493 126.64495 38028 ft 573 kts 55°
2026-05-04 23:51 25.57432 126.71653 38035 ft 574 kts 56°
2026-05-04 23:51 25.61428 126.78933 38041 ft 574 kts 56°
2026-05-04 23:52 25.65546 126.86410 38041 ft 574 kts 56°
2026-05-04 23:52 25.69549 126.93966 38058 ft 575 kts 56°
2026-05-04 23:53 25.73644 127.01321 38052 ft 576 kts 56°
2026-05-04 23:53 25.77725 127.08807 38086 ft 576 kts 56°
2026-05-04 23:54 25.81742 127.16183 38167 ft 576 kts 56°
2026-05-04 23:54 25.85749 127.23529 38207 ft 576 kts 56°
2026-05-04 23:55 25.89695 127.30938 38263 ft 577 kts 57°
2026-05-04 23:56 25.95665 127.41914 38323 ft 577 kts 56°
2026-05-04 23:56 25.99674 127.49347 38383 ft 576 kts 56°
2026-05-04 23:57 26.03757 127.56924 38378 ft 578 kts 56°
2026-05-04 23:57 26.07783 127.64420 38435 ft 578 kts 56°
2026-05-04 23:58 26.11910 127.72042 38447 ft 578 kts 57°
2026-05-04 23:58 26.15988 127.79537 38434 ft 575 kts 50°
2026-05-04 23:58 26.18445 127.82719 38386 ft 567 kts 39°
2026-05-04 23:59 26.21406 127.85460 38376 ft 560 kts 31°
2026-05-04 23:59 26.27450 127.90624 38385 ft 564 kts 34°
2026-05-05 00:00 26.33358 127.96090 38441 ft 564 kts 34°
2026-05-05 00:00 26.39360 128.01662 38437 ft 565 kts 34°
2026-05-05 00:01 26.45290 128.07214 38505 ft 565 kts 34°
2026-05-05 00:01 26.51062 128.12636 38517 ft 565 kts 34°